Total_Precipitation_Accumulation
0.47 0.38 0.46 0.52 0.46 0.47 0.72 0.76 0.67 0.41 0.35 0.38 0.36 0.35 0.35 0.35 0.35 0.32 0.32 0.35 0.40 0.46 0.51 0.56 0.64 0.73 0.78 0.82 0.84 0.87 0.98 1.03 1.08 1.11 1.17 1.21 1.18 1.29 1.46 1.41 1.26 1.18 1.17 1.23
0.42 0.29 0.35 0.41 0.33 0.36 0.42 0.44 0.42 0.31 0.33 0.34 0.33 0.28 0.30 0.33 0.36 0.38 0.38 0.39 0.41 0.46 0.50 0.57 0.65 0.75 0.87 0.87 0.86 0.81 0.87 0.96 1.03 1.12 1.25 1.26 1.21 1.25 1.36 1.43 1.35 1.24 1.18 1.18
0.66 0.33 0.55 0.61 0.42 0.41 0.44 0.43 0.46 0.51 0.43 0.34 0.33 0.33 0.38 0.42 0.44 0.45 0.45 0.45 0.44 0.48 0.53 0.61 0.67 0.76 0.87 0.90 0.89 0.85 0.85 0.91 0.97 1.03 1.20 1.26 1.25 1.30 1.35 1.41 1.47 1.45 1.29 1.18
1.10 0.78 1.06 0.54 0.29 0.33 0.38 0.44 0.48 0.46 0.38 0.37 0.40 0.37 0.37 0.43 0.51 0.51 0.48 0.47 0.47 0.51 0.56 0.59 0.66 0.71 0.78 0.84 0.85 0.90 0.90 0.93 0.98 0.98 1.04 1.19 1.30 1.33 1.35 1.37 1.40 1.46 1.41 1.29
1.64 1.17 0.64 0.30 0.24 0.33 0.44 0.49 0.42 0.38 0.35 0.33 0.30 0.27 0.29 0.31 0.39 0.49 0.50 0.50 0.52 0.56 0.59 0.60 0.61 0.65 0.75 0.81 0.83 0.92 0.98 0.99 0.97 0.93 0.96 1.08 1.19 1.30 1.35 1.36 1.32 1.33 1.33 1.32
1.88 1.43 0.68 0.39 0.24 0.22 0.36 0.61 0.38 0.34 0.37 0.34 0.33 0.43 0.35 0.29 0.36 0.46 0.45 0.48 0.53 0.55 0.53 0.57 0.60 0.63 0.73 0.81 0.80 0.89 0.96 1.01 0.93 0.84 0.83 0.86 0.98 1.18 1.30 1.32 1.26 1.26 1.26 1.27
1.58 1.29 0.57 0.36 0.25 0.27 0.59 0.68 0.36 0.35 0.38 0.38 0.44 0.50 0.39 0.34 0.39 0.44 0.42 0.45 0.47 0.49 0.50 0.59 0.64 0.63 0.70 0.78 0.84 0.89 0.95 1.02 0.93 0.83 0.82 0.83 0.91 1.09 1.23 1.31 1.31 1.24 1.19 1.20
1.16 1.34 0.73 0.36 0.37 0.60 0.70 0.40 0.32 0.30 0.31 0.33 0.31 0.29 0.28 0.31 0.37 0.40 0.37 0.37 0.39 0.43 0.48 0.55 0.62 0.65 0.71 0.78 0.84 0.92 0.97 0.96 0.95 0.92 0.87 0.89 0.93 1.06 1.21 1.29 1.37 1.31 1.20 1.16
0.86 0.75 0.50 0.40 0.50 0.52 0.45 0.36 0.28 0.30 0.27 0.27 0.26 0.26 0.29 0.33 0.35 0.38 0.36 0.36 0.37 0.41 0.45 0.52 0.59 0.65 0.76 0.82 0.82 0.88 0.94 0.96 0.97 0.97 0.94 0.95 0.99 1.08 1.20 1.28 1.33 1.32 1.23 1.15
0.61 0.40 0.32 0.34 0.37 0.37 0.33 0.30 0.26 0.27 0.25 0.24 0.23 0.23 0.27 0.31 0.32 0.34 0.35 0.36 0.37 0.40 0.43 0.51 0.58 0.62 0.72 0.80 0.79 0.78 0.83 0.93 0.93 0.96 1.01 1.04 1.07 1.10 1.18 1.28 1.35 1.26 1.19 1.11
0.54 0.33 0.29 0.28 0.29 0.30 0.25 0.23 0.22 0.23 0.23 0.23 0.24 0.24 0.27 0.30 0.31 0.34 0.39 0.40 0.40 0.43 0.45 0.52 0.60 0.66 0.73 0.75 0.74 0.74 0.77 0.88 0.96 1.00 1.06 1.09 1.11 1.15 1.22 1.23 1.37 1.34 1.20 1.13
0.52 0.34 0.38 0.33 0.27 0.26 0.25 0.24 0.25 0.25 0.25 0.22 0.24 0.29 0.28 0.30 0.32 0.35 0.40 0.43 0.43 0.44 0.49 0.54 0.61 0.72 0.76 0.72 0.71 0.74 0.78 0.84 0.94 1.02 1.04 1.03 1.02 1.09 1.26 1.28 1.32 1.28 1.22 1.19
0.34 0.29 0.29 0.27 0.24 0.25 0.25 0.23 0.24 0.25 0.26 0.25 0.24 0.27 0.31 0.32 0.32 0.35 0.38 0.43 0.49 0.52 0.57 0.59 0.63 0.73 0.76 0.73 0.70 0.72 0.78 0.83 0.90 0.99 0.98 0.95 0.91 0.93 1.04 1.21 1.30 1.29 1.25 1.21
0.20 0.23 0.24 0.20 0.20 0.19 0.19 0.19 0.20 0.21 0.21 0.22 0.23 0.24 0.28 0.30 0.29 0.32 0.38 0.45 0.52 0.55 0.57 0.61 0.65 0.73 0.76 0.71 0.69 0.70 0.75 0.85 0.91 0.95 0.97 0.94 0.92 0.91 0.93 1.02 1.15 1.22 1.26 1.23
0.13 0.16 0.19 0.16 0.15 0.15 0.15 0.16 0.17 0.17 0.17 0.17 0.19 0.22 0.26 0.30 0.32 0.35 0.40 0.47 0.52 0.54 0.56 0.62 0.69 0.79 0.78 0.72 0.69 0.71 0.78 0.83 0.84 0.89 0.95 0.96 0.95 0.97 0.99 1.01 1.06 1.11 1.16 1.30
0.14 0.14 0.15 0.16 0.17 0.16 0.16 0.16 0.17 0.16 0.16 0.17 0.18 0.20 0.23 0.30 0.35 0.42 0.46 0.50 0.55 0.60 0.63 0.66 0.72 0.81 0.78 0.71 0.69 0.71 0.80 0.92 0.90 0.90 0.95 0.98 0.98 1.03 1.08 1.11 1.12 1.10 1.11 1.22
0.21 0.19 0.17 0.17 0.16 0.16 0.17 0.18 0.18 0.17 0.17 0.18 0.20 0.20 0.22 0.27 0.32 0.39 0.45 0.52 0.60 0.64 0.66 0.67 0.73 0.77 0.77 0.75 0.73 0.71 0.76 0.84 0.93 0.91 0.90 0.94 0.98 1.03 1.08 1.14 1.16 1.09 1.03 1.14
0.24 0.22 0.19 0.19 0.18 0.17 0.16 0.16 0.16 0.19 0.20 0.21 0.22 0.23 0.25 0.29 0.35 0.42 0.49 0.53 0.56 0.61 0.66 0.69 0.74 0.77 0.77 0.81 0.77 0.75 0.78 0.82 0.84 0.87 0.90 0.96 1.02 1.03 1.10 1.15 1.13 1.10 1.08 1.15
0.19 0.19 0.17 0.17 0.17 0.16 0.17 0.18 0.19 0.21 0.22 0.23 0.24 0.26 0.29 0.33 0.39 0.46 0.52 0.53 0.53 0.57 0.64 0.68 0.76 0.73 0.75 0.83 0.84 0.80 0.84 0.87 0.89 0.87 0.88 1.01 1.07 1.05 1.08 1.13 1.15 1.14 1.14 1.16
0.18 0.17 0.16 0.15 0.15 0.16 0.18 0.20 0.19 0.20 0.21 0.23 0.26 0.28 0.30 0.34 0.40 0.46 0.51 0.53 0.56 0.63 0.64 0.68 0.69 0.68 0.71 0.81 0.88 0.83 0.87 0.92 0.93 0.90 0.89 0.95 1.01 1.06 1.07 1.10 1.14 1.16 1.17 1.18
0.19 0.17 0.16 0.15 0.16 0.16 0.19 0.20 0.20 0.20 0.21 0.24 0.29 0.33 0.36 0.40 0.43 0.46 0.47 0.48 0.50 0.55 0.57 0.62 0.63 0.67 0.71 0.83 0.92 0.88 0.89 0.90 0.93 0.93 0.93 0.95 1.00 1.05 1.07 1.08 1.11 1.14 1.17 1.19
0.20 0.20 0.19 0.17 0.18 0.19 0.21 0.22 0.24 0.24 0.25 0.26 0.30 0.35 0.39 0.42 0.42 0.44 0.44 0.48 0.50 0.56 0.55 0.54 0.56 0.66 0.75 0.83 0.84 0.85 0.85 0.86 0.90 0.94 0.97 0.98 1.04 1.10 1.09 1.08 1.13 1.14 1.15 1.18
0.21 0.21 0.22 0.22 0.23 0.24 0.23 0.23 0.26 0.28 0.29 0.30 0.33 0.37 0.40 0.42 0.42 0.44 0.46 0.47 0.51 0.59 0.57 0.57 0.64 0.73 0.81 0.78 0.77 0.79 0.81 0.85 0.88 0.94 0.99 1.03 1.06 1.10 1.13 1.13 1.15 1.15 1.19 1.21
0.25 0.23 0.25 0.26 0.27 0.27 0.26 0.25 0.27 0.31 0.34 0.35 0.36 0.39 0.43 0.44 0.43 0.43 0.48 0.55 0.60 0.64 0.61 0.67 0.75 0.79 0.83 0.77 0.74 0.79 0.84 0.89 0.92 0.99 1.04 1.07 1.10 1.13 1.13 1.13 1.15 1.14 1.16 1.18
0.29 0.28 0.27 0.28 0.29 0.31 0.32 0.30 0.30 0.32 0.33 0.37 0.39 0.40 0.44 0.49 0.53 0.53 0.53 0.58 0.64 0.69 0.68 0.74 0.79 0.82 0.79 0.78 0.79 0.83 0.91 0.96 1.04 1.14 1.18 1.14 1.13 1.14 1.11 1.08 1.12 1.16 1.16 1.14
0.33 0.34 0.34 0.35 0.36 0.37 0.36 0.36 0.35 0.34 0.34 0.37 0.41 0.45 0.50 0.53 0.56 0.58 0.59 0.61 0.65 0.70 0.71 0.72 0.76 0.81 0.82 0.86 0.90 0.93 1.01 1.06 1.11 1.11 1.08 1.08 1.08 1.07 1.05 1.04 1.06 1.11 1.13 1.11
0.39 0.38 0.39 0.40 0.41 0.41 0.42 0.43 0.45 0.45 0.44 0.47 0.52 0.52 0.54 0.58 0.62 0.64 0.65 0.67 0.69 0.71 0.74 0.77 0.81 0.86 0.91 0.95 0.99 1.03 1.06 1.08 1.09 1.09 1.06 1.07 1.07 1.05 1.03 1.03 1.05 1.07 1.07 1.05